Location: Unspecified
(34.4950°S, 58.5160°W)
Time: 00:02:34
(UTC+00:00)

SPOT 5 - Pass Details

Date: 15 December 2025
Orbit: 618 x 803 km, 98.0° (Epoch: 15 January)

Event Time Altitude Azimuth Distance (km) Brightness Sun altitude
Rises 23:38:54 0° 153° (SSE) 3,346 6.4 -7.1°
Reaches altitude 10° 23:41:44 10° 139° (SE) 2,406 5.5 -7.6°
Maximum altitude 23:46:00 24° 86° (E) 1,613 4.2 -8.3°
Drops below altitude 10° 23:50:10 10° 32° (NNE) 2,346 4.9 -9.0°
Enters shadow 23:50:31 - 30° (NNE) 2,457 5.0 -9.0°
